This demonstration page uses our WeatherBlox Daily Observations layout. Learn more.

Left ArrowRight Arrow

39.29038, -76.61219

Hourly Observations for March 31, 2022

Temp ( °F °C ) Dew Point ( °F °C ) Humidity (%) Winds ( mph kmh ) Pressure ( in mb ) Visibility ( mi km ) Precip ( " mm )
12:54 am 00:54 Cloudy 53 11.7 41 5 64 64 SSE 5 7 29.87 1012 10 16 0.00 0.00
1:32 am 01:32 Mostly Cloudy 52 11.1 41 5 66 66 SSE 5 7 29.86 1011 10 16 0.00 0.00
1:43 am 01:43 Cloudy 52 11.1 42 5.6 69 69 SSE 5 7 29.86 1011 10 16 0.00 0.00
1:54 am 01:54 Mostly Cloudy 52 11.1 42 5.6 69 69 SE 3 6 29.85 1011 10 16 0.00 0.00
2:04 am 02:04 Mostly Cloudy 52 11.1 42 5.6 69 69 Calm 29.85 1011 10 16 0.00 0.00
2:54 am 02:54 Cloudy 52 11.1 43 6.1 72 72 Calm 29.83 1010 10 16 0.00 0.00
3:41 am 03:41 Mostly Cloudy 49 9.4 42 5.6 77 77 Calm 29.81 1010 10 16 0.00 0.00
3:54 am 03:54 Partly Cloudy 49 9.4 42 5.6 77 77 Calm 29.81 1010 10 16 0.00 0.00
4:54 am 04:54 Mostly Cloudy 52 11.1 47 8.3 83 83 SE 5 7 29.78 1008 10 16 0.00 0.00
5:54 am 05:54 Mostly Cloudy 60 15.6 55 12.8 84 84 VRB 6 9 29.76 1008 10 16 0.00 0.00
6:54 am 06:54 Cloudy 59 15 54 12.2 83 83 SSE 8 13 29.74 1007 10 16 0.00 0.00
7:54 am 07:54 Cloudy 60 15.6 54 12.2 80 80 SSE 8 13 29.73 1007 10 16 0.00 0.00
8:25 am 08:25 Cloudy 61 16.1 55 12.8 81 81 SSE 8 13 29.73 1007 10 16 0.00 0.00
8:54 am 08:54 Cloudy 61 16.1 55 12.8 81 81 SE 8 13 29.72 1006 10 16 0.00 0.00
9:54 am 09:54 Cloudy 62 16.7 55 12.8 78 78 SE 7 11 29.70 1006 10 16 0.00 0.00
10:54 am 10:54 Cloudy 64 17.8 56 13.3 75 75 SSE 8 13 29.67 1005 10 16 0.00 0.00
11:54 am 11:54 Cloudy 69 20.6 58 14.4 68 68 S 9 15 29.63 1003 10 16 0.00 0.00
12:54 pm 12:54 Cloudy 72 22.2 59 15 64 64 S 13 20 29.60 1002 10 16 0.00 0.00
1:54 pm 13:54 Cloudy 74 23.3 58 14.4 57 57 SSW 17 28 29.57 1001 10 16 0.00 0.00
2:36 pm 14:36 Cloudy with Light Rain 70 21.1 61 16.1 73 73 SW 18 30 29.57 1001 3 4 0.03 0.76
2:42 pm 14:42 Cloudy with Light Rain 69 20.6 61 16.1 76 76 SSW 14 22 29.55 1001 4 6 0.03 0.76
2:54 pm 14:54 Cloudy 70 21.1 59 15 68 68 SSW 18 30 29.54 1001 10 16 0.04 1.02
3:54 pm 15:54 Cloudy 73 22.8 57 13.9 57 57 SSW 21 33 29.51 999 10 16 0.00 0.00
4:54 pm 16:54 Cloudy 71 21.7 59 15 66 66 S 13 20 29.48 998 10 16 0.00 0.00
5:54 pm 17:54 Cloudy 72 22.2 59 15 64 64 SSW 13 20 29.44 997 10 16 0.00 0.00
6:54 pm 18:54 Cloudy 65 18.3 57 13.9 76 76 SE 12 19 29.45 997 10 16 0.00 0.00
7:41 pm 19:41 Mostly Cloudy 64 17.8 58 14.4 81 81 SE 6 9 29.44 997 10 16 0.00 0.00
7:54 pm 19:54 Mostly Cloudy 63 17.2 58 14.4 84 84 E 6 9 29.44 997 10 16 0.00 0.00
8:21 pm 20:21 Mostly Cloudy 64 17.8 59 15 84 84 SE 7 11 29.44 997 10 16 0.00 0.00
8:54 pm 20:54 Mostly Cloudy 62 16.7 58 14.4 86 86 ESE 7 11 29.44 997 10 16 0.00 0.00
9:08 pm 21:08 Mostly Cloudy with Thunderstorms 62 16.7 58 14.4 86 86 SE 7 11 29.46 998 10 16 0.00 0.00
9:20 pm 21:20 Cloudy with Strong Thunderstorms 61 16.1 58 14.4 90 90 SSE 6 9 29.47 998 1 1 0.01 0.25
9:31 pm 21:31 Cloudy with Strong Thunderstorms 62 16.7 59 15 90 90 S 9 15 29.48 998 0 0 0.36 9.14
9:37 pm 21:37 Cloudy with Thunderstorms 62 16.7 59 15 90 90 SW 9 15 29.46 998 3 5 0.70 17.78
9:45 pm 21:45 Cloudy with Thunderstorms 62 16.7 59 15 90 90 WSW 6 9 29.47 998 6 10 0.71 18.03
9:54 pm 21:54 Cloudy 62 16.7 60 15.6 93 93 SSW 5 7 29.46 998 9 14 0.71 18.03
10:54 pm 22:54 Partly Cloudy 62 16.7 60 15.6 93 93 VRB 5 7 29.43 997 10 16 0.00 0.00
11:54 pm 23:54 Mostly Cloudy 62 16.7 59 15 90 90 WSW 5 7 29.47 998 10 16 0.00 0.00

Powered by AerisWeather